Location: Chassagnes
(44.4047°N, 4.1657°E)
Time: 12:39:24
(UTC+00:00)

SL-4 R/B - Pass Details

Date: 27 October 2020
Orbit: 427 x 665 km, 51.6° (Epoch: 23 November)

Event Time Altitude Azimuth Distance (km) Brightness Sun altitude
Rises 17:41:24 0° 292° (WNW) 2,429 6.5 -11.6°
Reaches altitude 10° 17:43:43 10° 306° (NW) 1,584 5.1 -12.1°
Maximum altitude 17:46:45 26° 4° (N) 964 3.2 -12.6°
Enters shadow 17:48:44 17° 49° (NE) 1,293 3.4 -13.0°
